SWA2194 KLAS-KONT

Flight info

Callsign SWA2194
Flight time 0h 37m
Altitude 26000
Route RADYR2 SLVRR FEYLA JCKIE2
Aircraft B737/M-SDE2E3FGHIRWXY/LB1

Departure

Time 2026-05-04 15:27
Airport Harry Reid International Airport (KLAS)

Arrival

Time 2026-05-04 16:04
Airport Ontario International Airport (KONT)
Time Latitude Longitude Altitude Speed Heading
2026-05-04 15:17 36.08126 -115.14801 2115 ft 3 kts 66°
2026-05-04 15:17 36.08120 -115.14824 2116 ft 3 kts 85°
2026-05-04 15:18 36.08121 -115.14848 2117 ft 3 kts 115°
2026-05-04 15:18 36.08131 -115.14865 2119 ft 2 kts 150°
2026-05-04 15:18 36.08135 -115.14868 2120 ft 0 kts 154°
2026-05-04 15:21 36.08134 -115.14868 2120 ft 1 kts 155°
2026-05-04 15:21 36.08116 -115.14858 2118 ft 5 kts 158°
2026-05-04 15:21 36.08000 -115.14799 2120 ft 13 kts 155°
2026-05-04 15:22 36.07912 -115.14749 2119 ft 15 kts 155°
2026-05-04 15:22 36.07807 -115.14709 2119 ft 19 kts 146°
2026-05-04 15:22 36.07755 -115.14367 2120 ft 21 kts 95°
2026-05-04 15:23 36.07750 -115.14187 2119 ft 22 kts 89°
2026-05-04 15:23 36.07752 -115.13999 2121 ft 22 kts 89°
2026-05-04 15:23 36.07754 -115.13816 2124 ft 21 kts 90°
2026-05-04 15:23 36.07754 -115.13638 2127 ft 20 kts 90°
2026-05-04 15:24 36.07754 -115.13300 2125 ft 19 kts 90°
2026-05-04 15:24 36.07754 -115.12982 2121 ft 18 kts 90°
2026-05-04 15:25 36.07754 -115.12832 2120 ft 17 kts 90°
2026-05-04 15:25 36.07754 -115.12686 2117 ft 17 kts 90°
2026-05-04 15:25 36.07685 -115.12605 2121 ft 16 kts 180°
2026-05-04 15:26 36.07642 -115.12917 2121 ft 50 kts 270°
2026-05-04 15:26 36.07641 -115.13640 2126 ft 116 kts 269°
2026-05-04 15:26 36.07630 -115.16369 2648 ft 179 kts 266°
2026-05-04 15:27 36.07622 -115.17889 3487 ft 175 kts 266°
2026-05-04 15:27 36.07596 -115.21033 4740 ft 195 kts 258°
2026-05-04 15:28 36.06960 -115.24547 5627 ft 228 kts 242°
2026-05-04 15:28 36.05996 -115.26141 6126 ft 238 kts 214°
2026-05-04 15:28 36.02835 -115.27744 7515 ft 255 kts 197°
2026-05-04 15:29 36.01105 -115.28439 8244 ft 265 kts 198°
2026-05-04 15:30 35.93549 -115.30909 10843 ft 324 kts 191°
2026-05-04 15:30 35.86446 -115.32553 12711 ft 356 kts 192°
2026-05-04 15:31 35.81555 -115.33737 14439 ft 363 kts 194°
2026-05-04 15:31 35.79070 -115.34346 15272 ft 365 kts 195°
2026-05-04 15:32 35.72483 -115.38516 18035 ft 357 kts 220°
2026-05-04 15:32 35.68534 -115.42293 19447 ft 362 kts 220°
2026-05-04 15:33 35.64539 -115.46106 20917 ft 365 kts 221°
2026-05-04 15:34 35.58462 -115.51835 22921 ft 371 kts 221°
2026-05-04 15:34 35.56388 -115.53787 23600 ft 372 kts 221°
2026-05-04 15:34 35.52387 -115.57519 25364 ft 352 kts 220°
2026-05-04 15:35 35.48468 -115.61123 25886 ft 352 kts 222°
2026-05-04 15:35 35.46543 -115.62975 25928 ft 351 kts 222°
2026-05-04 15:35 35.44608 -115.64822 25943 ft 352 kts 221°
2026-05-04 15:36 35.40726 -115.68480 25945 ft 352 kts 221°
2026-05-04 15:36 35.38781 -115.70299 25944 ft 352 kts 221°
2026-05-04 15:36 35.36834 -115.72118 25943 ft 352 kts 221°
2026-05-04 15:37 35.34909 -115.73955 25946 ft 350 kts 224°
2026-05-04 15:37 35.33163 -115.76019 25943 ft 348 kts 230°
2026-05-04 15:37 35.31543 -115.78206 25942 ft 348 kts 230°
2026-05-04 15:37 35.29920 -115.80406 25935 ft 347 kts 230°
2026-05-04 15:38 35.28300 -115.82598 25932 ft 347 kts 230°
2026-05-04 15:38 35.26675 -115.84786 25934 ft 347 kts 230°
2026-05-04 15:38 35.25050 -115.86963 25938 ft 347 kts 230°
2026-05-04 15:38 35.23421 -115.89141 25936 ft 346 kts 230°
2026-05-04 15:39 35.21792 -115.91315 25938 ft 346 kts 230°
2026-05-04 15:39 35.20163 -115.93480 25941 ft 346 kts 229°
2026-05-04 15:39 35.16898 -115.97812 25943 ft 346 kts 229°
2026-05-04 15:40 35.15263 -115.99979 25944 ft 346 kts 229°
2026-05-04 15:40 35.13633 -116.02139 25931 ft 346 kts 229°
2026-05-04 15:40 35.11998 -116.04305 25927 ft 346 kts 229°
2026-05-04 15:40 35.10365 -116.06467 25932 ft 346 kts 229°
2026-05-04 15:41 35.08734 -116.08626 25929 ft 346 kts 229°
2026-05-04 15:41 35.07103 -116.10785 25931 ft 346 kts 229°
2026-05-04 15:41 35.05469 -116.12945 25932 ft 346 kts 229°
2026-05-04 15:41 35.03834 -116.15105 25926 ft 346 kts 229°
2026-05-04 15:42 35.02203 -116.17257 25917 ft 345 kts 229°
2026-05-04 15:42 35.00605 -116.19364 25886 ft 332 kts 229°
2026-05-04 15:42 34.98998 -116.21362 25547 ft 326 kts 226°
2026-05-04 15:42 34.97338 -116.23239 24994 ft 326 kts 225°
2026-05-04 15:43 34.95689 -116.25059 24495 ft 322 kts 225°
2026-05-04 15:43 34.94019 -116.26909 23948 ft 319 kts 225°
2026-05-04 15:43 34.92405 -116.28712 23298 ft 319 kts 226°
2026-05-04 15:43 34.90770 -116.30548 22699 ft 317 kts 225°
2026-05-04 15:44 34.89158 -116.32360 22123 ft 314 kts 226°
2026-05-04 15:44 34.87582 -116.34156 21856 ft 304 kts 226°
2026-05-04 15:44 34.86079 -116.35949 21639 ft 303 kts 227°
2026-05-04 15:44 34.84550 -116.37793 21492 ft 315 kts 227°
2026-05-04 15:45 34.82974 -116.39681 21295 ft 320 kts 227°
2026-05-04 15:45 34.81385 -116.41577 21108 ft 319 kts 227°
2026-05-04 15:45 34.79826 -116.43483 20919 ft 316 kts 230°
2026-05-04 15:45 34.78476 -116.45576 20693 ft 314 kts 235°
2026-05-04 15:46 34.77201 -116.47739 20476 ft 314 kts 235°
2026-05-04 15:46 34.75934 -116.49904 20254 ft 315 kts 235°
2026-05-04 15:46 34.74662 -116.52069 20024 ft 315 kts 235°
2026-05-04 15:46 34.73813 -116.53511 19874 ft 315 kts 235°
2026-05-04 15:47 34.72536 -116.55672 19664 ft 316 kts 235°
2026-05-04 15:47 34.71252 -116.57837 19447 ft 316 kts 235°
2026-05-04 15:47 34.69962 -116.60008 19211 ft 316 kts 235°
2026-05-04 15:47 34.68674 -116.62172 18967 ft 317 kts 235°
2026-05-04 15:48 34.67373 -116.64359 18533 ft 322 kts 235°
2026-05-04 15:48 34.66058 -116.66568 18059 ft 323 kts 235°
2026-05-04 15:48 34.63450 -116.70943 16990 ft 315 kts 235°
2026-05-04 15:49 34.62178 -116.73075 16529 ft 309 kts 235°
2026-05-04 15:49 34.60923 -116.75177 16081 ft 306 kts 234°
2026-05-04 15:49 34.59746 -116.77321 15706 ft 305 kts 239°
2026-05-04 15:49 34.58722 -116.79557 15359 ft 302 kts 242°
2026-05-04 15:50 34.57728 -116.81810 15022 ft 303 kts 242°
2026-05-04 15:50 34.56725 -116.84066 14683 ft 305 kts 241°
2026-05-04 15:50 34.55704 -116.86338 14338 ft 308 kts 241°
2026-05-04 15:50 34.54660 -116.88625 13987 ft 311 kts 239°
2026-05-04 15:51 34.53391 -116.90746 13667 ft 311 kts 230°
2026-05-04 15:51 34.51971 -116.92724 13329 ft 311 kts 229°
2026-05-04 15:51 34.50545 -116.94688 13003 ft 310 kts 230°
2026-05-04 15:51 34.49128 -116.96656 12696 ft 309 kts 230°
2026-05-04 15:52 34.47721 -116.98623 12400 ft 308 kts 230°
2026-05-04 15:52 34.46339 -117.00560 12128 ft 307 kts 229°
2026-05-04 15:52 34.44799 -117.02360 11829 ft 309 kts 219°
2026-05-04 15:52 34.42981 -117.03749 11534 ft 310 kts 210°
2026-05-04 15:53 34.41061 -117.04942 11236 ft 310 kts 208°
2026-05-04 15:53 34.39132 -117.06113 10929 ft 311 kts 208°
2026-05-04 15:53 34.37206 -117.07295 10635 ft 309 kts 209°
2026-05-04 15:53 34.35324 -117.08465 10333 ft 300 kts 209°
2026-05-04 15:54 34.33493 -117.09611 10065 ft 292 kts 208°
2026-05-04 15:54 34.31724 -117.10750 9850 ft 282 kts 212°
2026-05-04 15:54 34.30089 -117.11944 9799 ft 268 kts 213°
2026-05-04 15:54 34.28487 -117.13142 9309 ft 270 kts 214°
2026-05-04 15:55 34.26903 -117.14322 9010 ft 264 kts 214°
2026-05-04 15:55 34.25357 -117.15469 8740 ft 259 kts 213°
2026-05-04 15:55 34.23833 -117.16591 8477 ft 254 kts 213°
2026-05-04 15:55 34.22329 -117.17689 8274 ft 254 kts 212°
2026-05-04 15:56 34.20826 -117.18789 8074 ft 251 kts 213°
2026-05-04 15:56 34.19428 -117.20021 7786 ft 247 kts 222°
2026-05-04 15:56 34.18170 -117.21419 7526 ft 244 kts 224°
2026-05-04 15:56 34.16938 -117.22807 7266 ft 241 kts 224°
2026-05-04 15:57 34.15748 -117.24224 6981 ft 239 kts 226°
2026-05-04 15:57 34.14594 -117.25640 6697 ft 235 kts 226°
2026-05-04 15:57 34.13439 -117.27047 6392 ft 236 kts 226°
2026-05-04 15:57 34.12273 -117.28461 6066 ft 239 kts 226°
2026-05-04 15:58 34.11109 -117.29870 5732 ft 234 kts 225°
2026-05-04 15:58 34.09980 -117.31235 5414 ft 226 kts 225°
2026-05-04 15:58 34.08886 -117.32554 5119 ft 219 kts 225°
2026-05-04 15:58 34.07826 -117.33829 4853 ft 211 kts 225°
2026-05-04 15:59 34.06805 -117.35058 4579 ft 203 kts 225°
2026-05-04 15:59 34.05911 -117.36314 4285 ft 195 kts 244°
2026-05-04 15:59 34.05673 -117.37847 4095 ft 188 kts 269°
2026-05-04 15:59 34.05699 -117.39424 3979 ft 189 kts 269°
2026-05-04 16:00 34.05709 -117.41022 3726 ft 190 kts 269°
2026-05-04 16:00 34.05707 -117.42605 3485 ft 186 kts 269°
2026-05-04 16:00 34.05704 -117.44140 3238 ft 180 kts 268°
2026-05-04 16:00 34.05702 -117.45594 2995 ft 166 kts 268°
2026-05-04 16:01 34.05700 -117.46910 2856 ft 148 kts 268°
2026-05-04 16:01 34.05697 -117.48105 2621 ft 137 kts 268°
2026-05-04 16:01 34.05696 -117.49241 2440 ft 135 kts 269°
2026-05-04 16:01 34.05695 -117.50367 2265 ft 135 kts 268°
2026-05-04 16:02 34.05693 -117.51498 2101 ft 134 kts 268°
2026-05-04 16:02 34.05692 -117.52623 1882 ft 134 kts 268°
2026-05-04 16:02 34.05681 -117.54846 1492 ft 133 kts 268°
2026-05-04 16:03 34.05693 -117.55968 1321 ft 133 kts 268°
2026-05-04 16:03 34.05687 -117.57075 1118 ft 130 kts 269°
2026-05-04 16:03 34.05693 -117.58173 979 ft 131 kts 266°
2026-05-04 16:03 34.05685 -117.59242 929 ft 119 kts 271°
2026-05-04 16:04 34.05688 -117.60055 934 ft 75 kts 269°
2026-05-04 16:04 34.05698 -117.60700 936 ft 23 kts 295°
2026-05-04 16:04 34.05805 -117.60736 939 ft 22 kts 68°
2026-05-04 16:05 34.05799 -117.60563 939 ft 22 kts 90°
2026-05-04 16:05 34.05800 -117.60374 938 ft 23 kts 90°
2026-05-04 16:05 34.05799 -117.60007 933 ft 22 kts 85°
2026-05-04 16:06 34.05872 -117.59854 931 ft 21 kts 68°
2026-05-04 16:06 34.05800 -117.59753 929 ft 20 kts 272°
2026-05-04 16:07 34.05799 -117.59966 932 ft 19 kts 268°
2026-05-04 16:07 34.05801 -117.60412 938 ft 17 kts 270°
2026-05-04 16:08 34.05832 -117.60536 939 ft 16 kts 314°
2026-05-04 16:08 34.05953 -117.60567 941 ft 4 kts 123°
2026-05-04 16:09 34.05900 -117.60533 939 ft 0 kts 164°
2026-05-04 16:09 34.05899 -117.60532 939 ft 0 kts 164°
2026-05-04 16:20 34.05900 -117.60532 940 ft 0 kts 164°
2026-05-04 16:28 34.05928 -117.60554 939 ft 3 kts 171°
2026-05-04 16:28 34.05952 -117.60556 940 ft 3 kts 95°
2026-05-04 16:29 34.05979 -117.60634 940 ft 3 kts 152°
2026-05-04 16:30 34.05988 -117.60640 940 ft 0 kts 147°
2026-05-04 16:31 34.05985 -117.60638 940 ft 2 kts 151°
2026-05-04 16:32 34.05786 -117.60742 941 ft 22 kts 75°
2026-05-04 16:33 34.05799 -117.60371 938 ft 23 kts 90°
2026-05-04 16:33 34.05800 -117.59949 931 ft 25 kts 90°
2026-05-04 16:34 34.05800 -117.59926 931 ft 25 kts 90°
2026-05-04 16:57 34.05799 -117.59867 930 ft 24 kts 90°
2026-05-04 16:57 34.05799 -117.59483 926 ft 23 kts 89°
2026-05-04 16:58 34.05801 -117.58914 932 ft 22 kts 90°
2026-05-04 16:58 34.05799 -117.58735 935 ft 21 kts 90°
2026-05-04 16:59 34.05787 -117.58394 934 ft 20 kts 127°
2026-05-04 17:00 34.05664 -117.60806 1223 ft 163 kts 267°
2026-05-04 17:00 34.05698 -117.64933 3413 ft 189 kts 271°
2026-05-04 17:01 34.05782 -117.68399 4467 ft 227 kts 271°
2026-05-04 17:01 34.06280 -117.72464 5709 ft 258 kts 287°
2026-05-04 17:02 34.07340 -117.76686 7481 ft 268 kts 285°
2026-05-04 17:02 34.09214 -117.80589 8704 ft 282 kts 308°
2026-05-04 17:03 34.10483 -117.82401 9922 ft 285 kts 310°
2026-05-04 17:03 34.11882 -117.84152 10777 ft 298 kts 312°
2026-05-04 17:03 34.15260 -117.87613 12285 ft 327 kts 315°
2026-05-04 17:04 34.18775 -117.91199 14261 ft 334 kts 314°
2026-05-04 17:04 34.22339 -117.94874 16193 ft 340 kts 311°
2026-05-04 17:05 34.26898 -117.97069 17920 ft 386 kts 354°
2026-05-04 17:05 34.32170 -117.94744 19413 ft 422 kts 25°
2026-05-04 17:06 34.36508 -117.89835 20789 ft 443 kts 63°
2026-05-04 17:06 34.37547 -117.86340 21510 ft 443 kts 84°
2026-05-04 17:07 34.38062 -117.78901 22841 ft 452 kts 91°
2026-05-04 17:07 34.38137 -117.77622 23046 ft 454 kts 91°
2026-05-04 17:07 34.38546 -117.71161 24134 ft 461 kts 91°
2026-05-04 17:07 34.38814 -117.67338 24681 ft 462 kts 91°
2026-05-04 17:08 34.39092 -117.63495 24916 ft 455 kts 91°
2026-05-04 17:08 34.41282 -117.56204 24951 ft 473 kts 54°
2026-05-04 17:08 34.43222 -117.52990 24943 ft 472 kts 52°
2026-05-04 17:09 34.45209 -117.49833 24944 ft 471 kts 52°
2026-05-04 17:09 34.47203 -117.46690 24960 ft 471 kts 52°
2026-05-04 17:09 34.49189 -117.43535 24971 ft 470 kts 52°
2026-05-04 17:10 34.53101 -117.37210 24979 ft 468 kts 53°
2026-05-04 17:10 34.58892 -117.27692 24978 ft 467 kts 53°
2026-05-04 17:11 34.60171 -117.25582 24973 ft 468 kts 53°
2026-05-04 17:11 34.62099 -117.22401 24967 ft 468 kts 53°
2026-05-04 17:11 34.65953 -117.16037 24861 ft 468 kts 53°
2026-05-04 17:12 34.67885 -117.12843 24877 ft 468 kts 53°
2026-05-04 17:12 34.71741 -117.06462 24878 ft 469 kts 53°
2026-05-04 17:13 34.77488 -116.96931 24906 ft 469 kts 53°
2026-05-04 17:14 34.83271 -116.87312 24947 ft 469 kts 53°
2026-05-04 17:14 34.85191 -116.84112 24911 ft 469 kts 53°
2026-05-04 17:14 34.89037 -116.77697 24915 ft 468 kts 53°
2026-05-04 17:15 34.90950 -116.74501 24905 ft 467 kts 53°
2026-05-04 17:15 34.94715 -116.68042 24901 ft 467 kts 55°
2026-05-04 17:16 34.98372 -116.61498 24895 ft 467 kts 55°
2026-05-04 17:16 35.03859 -116.51686 24865 ft 467 kts 55°
2026-05-04 17:17 35.05700 -116.48412 24866 ft 466 kts 55°
2026-05-04 17:17 35.11319 -116.38686 23718 ft 466 kts 47°
2026-05-04 17:18 35.13489 -116.35822 23441 ft 455 kts 43°
2026-05-04 17:18 35.17918 -116.30395 22760 ft 442 kts 43°
2026-05-04 17:19 35.22109 -116.25048 22135 ft 434 kts 45°
2026-05-04 17:19 35.26128 -116.19619 21511 ft 427 kts 47°
2026-05-04 17:20 35.30041 -116.14203 20943 ft 421 kts 47°
2026-05-04 17:20 35.33929 -116.08868 20387 ft 420 kts 47°
2026-05-04 17:20 35.35873 -116.06198 20106 ft 420 kts 47°
2026-05-04 17:21 35.39746 -116.00870 19531 ft 417 kts 47°
2026-05-04 17:21 35.43589 -115.95575 18963 ft 414 kts 47°
2026-05-04 17:22 35.45491 -115.92955 18653 ft 410 kts 47°
2026-05-04 17:22 35.47377 -115.90356 18372 ft 404 kts 47°
2026-05-04 17:23 35.52852 -115.82787 17498 ft 388 kts 47°
2026-05-04 17:23 35.54633 -115.80321 17221 ft 384 kts 47°
2026-05-04 17:23 35.58142 -115.75459 16689 ft 373 kts 48°
2026-05-04 17:24 35.59826 -115.73132 16425 ft 364 kts 47°
2026-05-04 17:24 35.64818 -115.66401 15698 ft 350 kts 47°
2026-05-04 17:25 35.66454 -115.64198 15477 ft 348 kts 47°
2026-05-04 17:25 35.69705 -115.59806 15076 ft 347 kts 47°
2026-05-04 17:26 35.73010 -115.55451 14597 ft 349 kts 38°
2026-05-04 17:26 35.79188 -115.51059 13889 ft 334 kts 27°
2026-05-04 17:27 35.83206 -115.48292 13391 ft 328 kts 28°
2026-05-04 17:27 35.87141 -115.45539 12905 ft 322 kts 29°
2026-05-04 17:28 35.91023 -115.42812 12459 ft 322 kts 29°
2026-05-04 17:29 35.96917 -115.38699 11703 ft 325 kts 30°
2026-05-04 17:29 36.01286 -115.33002 10978 ft 307 kts 81°
2026-05-04 17:30 36.01109 -115.25373 10324 ft 294 kts 99°
2026-05-04 17:31 36.00788 -115.20436 9877 ft 282 kts 98°
2026-05-04 17:31 36.00374 -115.13353 9214 ft 266 kts 98°
2026-05-04 17:32 36.00117 -115.08894 8770 ft 255 kts 99°
2026-05-04 17:33 35.99896 -115.02496 8103 ft 242 kts 95°
2026-05-04 17:33 35.99877 -115.00458 7893 ft 230 kts 100°
2026-05-04 17:34 35.99423 -114.95199 7967 ft 198 kts 104°
2026-05-04 17:34 35.99263 -114.93493 7980 ft 202 kts 103°
2026-05-04 17:35 35.98965 -114.88255 7951 ft 213 kts 79°
2026-05-04 17:35 36.01222 -114.86177 7418 ft 219 kts
2026-05-04 17:35 36.02679 -114.86576 7021 ft 217 kts 325°
2026-05-04 17:36 36.03770 -114.87788 6690 ft 210 kts 300°
2026-05-04 17:36 36.04544 -114.89297 6431 ft 204 kts 295°
2026-05-04 17:36 36.05265 -114.90808 6075 ft 204 kts 296°
2026-05-04 17:36 36.05974 -114.92289 5713 ft 203 kts 296°
2026-05-04 17:37 36.06685 -114.93759 5514 ft 192 kts 296°
2026-05-04 17:37 36.07370 -114.95170 5144 ft 193 kts 292°
2026-05-04 17:37 36.07647 -114.96759 4651 ft 190 kts 257°
2026-05-04 17:37 36.07130 -114.98184 4340 ft 180 kts 238°
2026-05-04 17:38 36.06983 -114.99689 4097 ft 184 kts 284°
2026-05-04 17:38 36.07361 -115.01154 3860 ft 174 kts 270°
2026-05-04 17:38 36.07360 -115.02573 3681 ft 159 kts 267°
2026-05-04 17:38 36.07375 -115.03868 3504 ft 140 kts 268°
2026-05-04 17:39 36.07375 -115.06135 3114 ft 130 kts 268°
2026-05-04 17:39 36.07373 -115.07265 2970 ft 136 kts 265°
2026-05-04 17:39 36.07386 -115.08461 2790 ft 139 kts 271°
2026-05-04 17:40 36.07420 -115.09664 2542 ft 140 kts 266°
2026-05-04 17:40 36.07401 -115.10859 2350 ft 140 kts 265°
2026-05-04 17:40 36.07380 -115.12078 2224 ft 141 kts 265°
2026-05-04 17:40 36.07366 -115.13281 2121 ft 135 kts 266°
2026-05-04 17:41 36.07365 -115.14257 2126 ft 92 kts 270°
2026-05-04 17:41 36.07362 -115.14860 2123 ft 49 kts 270°
2026-05-04 17:41 36.07365 -115.15127 2117 ft 25 kts 272°
2026-05-04 17:41 36.07393 -115.15326 2121 ft 23 kts 289°
2026-05-04 17:42 36.07467 -115.15497 2121 ft 22 kts 307°
2026-05-04 17:42 36.07560 -115.15647 2123 ft 22 kts 315°
2026-05-04 17:42 36.07669 -115.15781 2122 ft 24 kts 315°
2026-05-04 17:42 36.07803 -115.15773 2127 ft 23 kts 77°
2026-05-04 17:43 36.07803 -115.15580 2124 ft 22 kts 89°
2026-05-04 17:43 36.07804 -115.15404 2128 ft 22 kts 90°
2026-05-04 17:43 36.07804 -115.15228 2127 ft 21 kts 88°
2026-05-04 17:43 36.07896 -115.15112 2130 ft 22 kts
2026-05-04 17:44 36.08045 -115.15113 2125 ft 21 kts 360°
2026-05-04 17:44 36.08137 -115.15016 2119 ft 21 kts 86°
2026-05-04 17:44 36.08148 -115.14875 2119 ft 8 kts 73°
2026-05-04 17:44 36.08165 -115.14822 2117 ft 5 kts 66°
2026-05-04 17:45 36.08169 -115.14811 2115 ft 0 kts 66°